CAPE
0 0 0 0 0 0 0 0 0 0 0 0 0 0 0 0 0 0 0 0 0 0 0 0 0 0 0 0 0 0 0 0 0 0 0 0 0 0 0 0 0 0 0 0
0 0 0 0 0 0 0 0 0 0 0 0 0 0 0 0 0 0 0 0 0 0 0 0 0 0 0 0 0 0 0 0 0 0 0 0 0 0 0 0 0 0 0 0
0 0 0 0 0 0 0 0 0 0 0 0 0 0 0 0 0 0 0 0 0 0 0 0 0 0 0 0 0 0 0 0 0 0 0 0 0 0 0 0 0 0 0 0
0 0 0 0 0 0 0 0 0 0 0 0 0 0 0 0 0 0 0 0 0 0 0 0 0 0 0 0 0 0 0 0 0 0 0 0 0 0 0 0 0 0 0 0
0 0 0 0 0 0 0 0 0 0 0 0 0 0 0 0 0 0 0 0 0 0 0 0 0 0 0 0 0 0 0 0 0 0 0 0 0 0 0 0 0 0 0 0
0 0 0 0 0 0 0 0 0 0 0 0 0 0 0 0 0 0 0 0 0 0 0 0 0 0 0 0 0 0 0 0 0 0 0 0 0 0 0 0 0 0 0 0
0 0 0 0 0 0 0 0 0 0 0 0 0 0 0 0 0 0 0 0 0 0 0 0 0 0 0 0 0 0 0 0 0 0 0 0 0 0 0 0 0 0 0 0
0 0 0 0 0 0 0 0 0 0 0 0 0 0 0 0 0 0 0 0 0 0 0 0 0 0 0 0 0 0 0 0 0 0 0 0 0 0 0 0 0 0 0 0
0 0 0 0 0 0 0 0 0 0 0 0 0 0 0 0 0 0 0 0 0 0 0 0 0 0 0 0 0 0 0 0 0 0 0 0 0 0 0 0 0 0 0 0
0 0 0 0 0 0 0 0 0 0 0 0 0 0 0 0 0 0 0 0 0 0 0 0 0 0 0 0 0 0 0 0 0 0 0 0 0 0 0 0 0 0 0 0
0 0 0 0 0 0 0 0 0 0 0 0 0 0 0 0 0 0 0 0 0 0 0 0 0 0 0 0 0 0 0 0 0 0 0 0 0 0 0 0 0 0 0 0
0 0 0 0 0 0 0 0 0 0 0 0 0 0 0 0 0 0 0 0 0 0 0 0 0 0 0 0 0 0 0 0 0 0 0 0 0 0 0 0 0 0 0 0
0 0 0 0 0 0 0 0 0 0 0 0 0 0 0 0 0 0 0 0 0 0 0 0 0 0 0 0 0 0 0 0 0 0 0 0 0 0 0 0 0 0 0 0
0 0 0 0 0 0 0 0 0 0 0 0 0 0 0 0 0 0 0 0 0 0 0 0 0 0 0 0 0 0 0 0 0 0 0 0 0 0 0 0 0 0 0 0
0 0 0 0 0 0 0 0 0 0 0 0 0 0 0 0 0 0 0 0 0 0 0 0 0 0 0 0 0 0 0 0 0 0 0 0 0 0 0 0 0 0 0 0
0 0 0 0 0 0 0 0 0 0 0 0 0 0 0 0 0 0 0 0 0 0 0 0 0 0 0 0 0 0 0 0 0 0 0 0 0 0 0 0 0 0 0 0
0 0 0 0 0 0 0 0 0 0 0 0 0 0 0 0 0 0 0 0 0 0 0 0 0 0 0 0 0 0 0 0 0 0 0 0 0 0 0 0 0 0 0 0
0 0 0 0 0 0 0 0 0 0 0 0 0 0 0 0 0 0 0 0 0 0 0 0 0 0 0 0 0 0 0 0 0 0 0 0 0 0 0 0 0 0 0 0
0 0 0 0 0 0 0 0 0 0 0 0 0 0 0 0 0 0 0 0 0 0 0 0 0 0 0 0 0 0 0 0 0 0 0 0 0 0 0 0 0 0 0 0
0 0 0 0 0 0 0 0 0 0 0 0 0 0 0 0 0 0 0 0 0 0 0 0 0 0 0 0 0 0 0 0 0 0 0 0 0 0 0 0 0 0 0 0
0 0 0 0 0 0 0 0 0 0 0 0 0 0 0 0 0 0 0 0 0 0 0 0 0 0 0 0 0 0 0 0 0 0 0 0 0 0 0 0 0 0 0 0
0 0 0 0 0 0 0 0 0 0 0 0 0 0 0 0 0 0 0 0 0 0 0 0 0 0 0 0 0 0 0 0 0 0 0 0 0 0 0 0 0 0 0 0
0 0 0 0 0 0 0 0 0 0 0 0 0 0 0 0 0 0 0 0 0 0 0 0 0 0 0 0 0 0 0 0 0 0 0 0 0 0 0 0 0 0 0 0
0 0 0 0 0 0 0 0 0 0 0 0 0 0 0 0 0 0 0 0 0 0 0 0 0 0 0 0 0 0 0 0 0 0 0 0 0 0 0 0 0 0 0 0
0 0 0 0 0 0 0 0 0 0 0 0 0 0 0 0 0 0 0 0 0 0 0 0 0 0 0 0 0 0 0 0 0 0 0 0 0 0 0 0 0 0 0 0
0 0 0 0 0 0 0 0 0 0 0 0 0 0 0 0 0 0 0 0 0 0 0 0 0 0 0 0 0 0 0 0 0 0 0 0 0 0 0 0 0 0 0 0
CIN
0 0 0 0 0 0 0 0 0 0 0 0 0 0 0 0 0 0 0 0 0 0 0 0 0 0 0 0 0 0 0 0 0 0 0 0 0 0 0 0 0 0 0 0
0 0 0 0 0 0 0 0 0 0 0 0 0 0 0 0 0 0 0 0 0 0 0 0 0 0 0 0 0 0 0 0 0 0 0 0 0 0 0 0 0 0 0 0
0 0 0 0 0 0 0 0 0 0 0 0 0 0 0 0 0 0 0 0 0 0 0 0 0 0 0 0 0 0 0 0 0 0 0 0 0 0 0 0 0 0 0 0
0 0 0 0 0 0 0 0 0 0 0 0 0 0 0 0 0 0 0 0 0 0 0 0 0 0 0 0 0 0 0 0 0 0 0 0 0 0 0 0 0 0 0 0
0 0 0 0 0 0 0 0 0 0 0 0 0 0 0 0 0 0 0 0 0 0 0 0 0 0 0 0 0 0 0 0 0 0 0 0 0 0 0 0 0 0 0 0
0 0 0 0 0 0 0 0 0 0 0 0 0 0 0 0 0 0 0 0 0 0 0 0 0 0 0 0 0 0 0 0 0 0 0 0 0 0 0 0 0 0 0 0
0 0 0 0 0 0 0 0 0 0 0 0 0 0 0 0 0 0 0 0 0 0 0 0 0 0 0 0 0 0 0 0 0 0 0 0 0 0 0 0 0 0 0 0
0 0 0 0 0 0 0 0 0 0 0 0 0 0 0 0 0 0 0 0 0 0 0 0 0 0 0 0 0 0 0 0 0 0 0 0 0 0 0 0 0 0 0 0
0 0 0 0 0 0 0 0 0 0 0 0 0 0 0 0 0 0 0 0 0 0 0 0 0 0 0 0 0 0 0 0 0 0 0 0 0 0 0 0 0 0 0 0
0 0 0 0 0 0 0 0 0 0 0 0 0 0 0 0 0 0 0 0 0 0 0 0 0 0 0 0 0 0 0 0 0 0 0 0 0 0 0 0 0 0 0 0
0 0 0 0 0 0 0 0 0 0 0 0 0 0 0 0 0 0 0 0 0 0 0 0 0 0 0 0 0 0 0 0 0 0 0 0 0 0 0 0 0 0 0 0
0 0 0 0 0 0 0 0 0 0 0 0 0 0 0 0 0 0 0 0 0 0 0 0 0 0 0 0 0 0 0 0 0 0 0 0 0 0 0 0 0 0 0 0
0 0 0 0 0 0 0 0 0 0 0 0 0 0 0 0 0 0 0 0 0 0 0 0 0 0 0 0 0 0 0 0 0 0 0 0 0 0 0 0 0 0 0 0
0 0 0 0 0 0 0 0 0 0 0 0 0 0 0 0 0 0 0 0 0 0 0 0 0 0 0 0 0 0 0 0 0 0 0 0 0 0 0 0 0 0 0 0
0 0 0 0 0 0 0 0 0 0 0 0 0 0 0 0 0 0 0 0 0 0 0 0 0 0 0 0 0 0 0 0 0 0 0 0 0 0 0 0 0 0 0 0
0 0 0 0 0 0 0 0 0 0 0 0 0 0 0 0 0 0 0 0 0 0 0 0 0 0 0 0 0 0 0 0 0 0 0 0 0 0 0 0 0 0 0 0
0 0 0 0 0 0 0 0 0 0 0 0 0 0 0 0 0 0 0 0 0 0 0 0 0 0 0 0 0 0 0 0 0 0 0 0 0 0 0 0 0 0 0 0
0 0 0 0 0 0 0 0 0 0 0 0 0 0 0 0 0 0 0 0 0 0 0 0 0 0 0 0 0 0 0 0 0 0 0 0 0 0 0 0 0 0 0 0
0 0 0 0 0 0 0 0 0 0 0 0 0 0 0 0 0 0 0 0 0 0 0 0 0 0 0 0 0 0 0 0 0 0 0 0 0 0 0 0 0 0 0 0
0 0 0 0 0 0 0 0 0 0 0 0 0 0 0 0 0 0 0 0 0 0 0 0 0 0 0 0 0 0 0 0 0 0 0 0 0 0 0 0 0 0 0 0
0 0 0 0 0 0 0 0 0 0 0 0 0 0 0 0 0 0 0 0 0 0 0 0 0 0 0 0 0 0 0 0 0 0 0 0 0 0 0 0 0 0 0 0
0 0 0 0 0 0 0 0 0 0 0 0 0 0 0 0 0 0 0 0 0 0 0 0 0 0 0 0 0 0 0 0 0 0 0 0 0 0 0 0 0 0 0 0
0 0 0 0 0 0 0 0 0 0 0 0 0 0 0 0 0 0 0 0 0 0 0 0 0 0 0 0 0 0 0 0 0 0 0 0 0 0 0 0 0 0 0 0
0 0 0 0 0 0 0 0 0 0 0 0 0 0 0 0 0 0 0 0 0 0 0 0 0 0 0 0 0 0 0 0 0 0 0 0 0 0 0 0 0 0 0 0
0 0 0 0 0 0 0 0 0 0 0 0 0 0 0 0 0 0 0 0 0 0 0 0 0 0 0 0 0 0 0 0 0 0 0 0 0 0 0 0 0 0 0 0
0 0 0 0 0 0 0 0 0 0 0 0 0 0 0 0 0 0 0 0 0 0 0 0 0 0 0 0 0 0 0 0 0 0 0 0 0 0 0 0 0 0 0 0
Wind_Speed
16 15 15 13 12 12 11 11 10 9 10 7 8 8 8 9 12 12 12 12 10 8 7 8 7 6 6 5 4 3 3 3 3 2 2 2 1 2 2 2 3 3 5 5
16 15 14 13 12 11 11 10 9 10 10 5 7 10 9 9 10 11 10 11 10 8 7 7 6 5 4 3 1 2 1 1 2 1 2 3 3 3 3 3 3 2 3 4
15 16 13 12 11 10 10 11 9 7 8 8 5 10 15 13 11 9 8 10 11 8 7 6 5 5 3 3 2 2 3 3 3 3 5 6 7 8 7 6 6 5 4 4
15 15 14 13 12 10 10 13 8 7 6 10 7 9 17 16 15 13 11 9 9 8 6 5 5 4 3 3 2 3 4 4 5 4 5 7 7 7 10 10 11 10 8 7
16 15 13 12 13 11 11 8 8 9 9 9 18 12 17 17 21 19 16 12 9 7 6 5 4 4 2 1 3 3 4 5 6 6 6 7 7 8 9 10 11 10 10 9
12 14 13 13 12 12 9 9 11 13 15 13 18 20 17 18 20 17 16 14 12 9 7 5 5 4 3 2 2 2 4 7 7 8 8 9 9 8 8 8 8 9 9 9
14 14 14 14 12 14 13 8 17 12 10 13 17 12 10 18 17 16 17 15 13 11 10 9 7 6 3 2 1 4 6 9 10 10 11 11 11 10 10 9 8 7 8 10
12 13 14 15 16 17 18 19 19 17 18 5 17 15 15 18 17 15 13 12 13 11 11 10 8 5 3 3 6 8 10 10 10 11 12 12 12 12 11 11 10 9 9 9
11 13 13 15 15 16 17 18 18 18 17 18 16 16 19 18 19 20 18 13 10 8 8 7 7 7 6 7 8 10 10 10 9 9 10 11 11 12 12 11 11 11 10 10
15 13 14 13 14 14 14 15 16 17 20 18 19 20 18 19 20 20 21 17 10 7 6 6 7 8 8 11 13 13 11 8 8 8 9 10 10 10 11 11 12 12 12 11
14 13 14 13 11 13 14 15 14 17 17 19 21 17 20 21 20 22 24 20 12 8 6 7 8 10 12 14 15 14 10 10 10 9 8 8 9 9 10 11 12 12 12 11
9 13 13 14 13 14 14 14 14 17 17 16 19 16 17 19 20 21 21 19 18 14 11 10 11 13 14 13 12 11 10 12 12 11 9 9 9 9 9 10 10 10 11 11
6 12 14 16 15 15 12 11 11 16 17 14 18 17 15 17 23 21 27 28 22 17 14 13 15 16 16 14 13 11 11 12 13 13 11 10 10 8 8 9 9 9 9 10
10 15 14 16 17 14 13 10 8 10 16 17 12 15 14 19 27 33 30 25 26 24 22 21 20 18 17 16 13 12 11 14 15 14 13 12 11 10 9 7 8 9 9 11
13 19 16 18 19 14 14 13 9 8 10 16 19 20 21 27 32 27 26 29 29 28 26 25 23 21 20 17 13 11 12 13 15 14 14 13 12 12 10 9 8 9 10 11
16 21 20 23 18 18 19 16 14 12 14 15 17 19 19 19 21 24 27 30 31 29 28 28 27 25 21 17 13 14 13 12 13 12 12 14 14 13 12 12 11 10 10 11
16 18 20 24 20 21 25 16 13 17 18 13 17 16 20 24 24 24 27 29 29 28 29 29 28 26 22 17 14 13 13 12 11 12 13 14 15 16 15 13 14 14 13 12
17 17 19 25 21 31 22 18 17 17 16 13 17 18 21 24 24 22 24 26 27 27 29 29 28 25 22 18 14 13 12 12 12 13 14 15 16 16 16 16 15 16 15 16
16 17 24 27 27 32 32 23 20 20 25 14 17 20 21 21 22 25 25 24 26 27 28 27 26 25 22 18 14 13 12 13 13 12 13 14 15 16 17 17 17 18 18 17
22 21 23 25 32 35 24 19 19 21 33 24 18 21 22 18 28 30 24 26 28 28 28 28 26 24 22 19 15 14 14 14 14 12 13 14 15 16 17 18 19 20 22 24
25 27 29 29 34 34 24 19 18 29 34 23 21 21 19 21 23 27 27 28 28 29 30 28 27 26 23 20 17 16 17 17 16 14 15 15 16 17 18 19 22 24 26 28
27 27 31 31 36 44 21 18 25 26 25 25 25 22 23 24 26 29 31 32 31 33 33 30 30 28 24 20 19 19 19 19 19 18 18 19 19 19 20 21 24 26 29 32
34 29 31 29 33 26 18 23 19 25 28 29 29 28 30 32 33 34 36 35 34 34 34 33 32 29 26 23 20 22 21 24 24 23 23 23 23 23 23 25 27 29 31 32
34 28 36 32 34 31 28 24 26 27 30 32 33 34 34 37 37 39 40 38 37 38 39 36 33 30 28 26 26 24 25 27 27 27 27 28 27 26 26 27 28 30 32 33
35 29 36 41 38 34 32 29 31 33 34 37 38 37 37 38 41 41 41 40 40 39 38 35 33 33 32 30 29 28 29 29 31 30 30 31 30 28 28 28 29 30 32 32
37 38 39 45 35 36 38 30 28 32 37 38 39 40 39 39 40 41 44 42 42 41 37 35 35 35 35 34 33 34 35 33 33 33 33 31 30 29 29 30 33 32 34 33
Wind_Direction
169 165 162 166 166 173 184 189 197 190 130 179 169 192 194 184 158 160 161 166 153 145 138 150 147 143 148 148 149 126 129 137 131 120 101 91 64 50 56 62 46 48 35 35
162 166 153 154 157 171 177 188 209 133 126 154 193 236 213 140 136 165 159 165 165 136 129 133 140 150 156 165 178 201 217 206 198 294 342 344 346 345 348 357 355 5 10 10
187 157 154 159 175 189 194 168 188 188 240 152 159 120 85 96 100 125 138 154 163 146 130 127 134 149 157 191 213 235 242 269 277 277 324 328 333 334 332 330 330 331 333 336
180 160 163 174 180 181 192 120 166 198 214 149 113 142 70 74 72 80 90 131 137 144 116 124 137 142 168 195 221 236 247 253 270 274 285 293 301 298 316 322 325 324 321 318
173 164 170 179 154 143 161 147 164 141 142 153 78 110 72 75 51 55 65 83 104 132 111 117 122 147 148 161 202 225 243 246 250 259 263 277 273 293 309 311 314 312 314 310
142 135 151 130 124 113 153 131 129 110 93 118 69 50 64 54 42 51 53 61 69 86 95 82 100 83 124 142 192 255 257 258 259 253 254 256 265 274 285 290 288 301 304 307
89 89 56 84 125 95 86 168 67 122 129 87 48 83 94 46 48 48 46 50 58 67 77 76 84 90 95 47 324 306 293 281 279 264 259 257 257 261 263 271 276 280 292 304
80 10 37 31 17 17 6 23 18 50 39 169 42 65 58 40 47 51 49 54 60 68 67 68 68 67 57 6 337 321 313 295 285 276 268 264 263 261 264 265 275 277 278 285
20 10 7 1 11 14 23 25 33 28 31 28 35 34 30 40 39 35 34 47 52 61 63 57 42 29 11 350 334 321 316 305 295 278 282 276 272 267 266 269 271 276 273 281
318 349 349 6 15 30 28 32 30 34 19 26 18 14 24 24 21 27 26 28 33 33 30 21 11 2 353 341 336 332 324 310 304 294 283 284 278 273 274 277 272 271 272 272
317 335 345 356 13 10 14 15 23 17 13 7 6 20 19 15 21 19 17 19 19 9 347 337 328 334 332 334 339 337 334 332 328 319 306 296 292 282 280 275 277 273 275 270
331 333 333 341 356 357 360 1 7 5 6 8 0 6 17 20 17 8 6 6 5 4 350 335 323 314 320 332 340 340 342 341 339 335 327 309 301 295 281 279 280 280 280 280
332 327 328 330 337 341 349 359 2 356 356 356 356 1 13 15 2 4 356 354 358 357 350 342 342 338 343 345 342 347 347 344 343 343 338 331 323 309 298 298 294 287 281 285
316 312 318 323 332 346 345 350 351 351 345 346 332 339 339 342 346 345 351 360 359 358 357 353 348 344 342 343 344 346 347 349 347 344 343 339 336 330 322 312 305 299 291 289
303 302 308 312 318 328 328 330 325 309 313 330 336 332 329 335 336 345 353 353 353 355 356 356 352 348 345 347 346 349 351 350 349 349 347 345 346 342 338 329 320 315 305 300
294 300 308 307 310 314 314 314 307 298 298 294 305 313 325 333 341 344 346 348 348 350 352 353 353 352 350 348 346 346 348 350 353 355 354 350 350 348 344 339 334 327 318 311
287 295 305 306 318 317 313 313 295 307 309 300 309 315 329 335 336 339 341 345 346 348 349 350 352 353 353 351 349 345 346 350 352 351 350 349 348 346 345 344 336 329 323 319
285 289 300 303 311 301 316 328 329 322 314 303 310 315 325 328 331 337 339 340 342 344 345 346 348 350 350 350 347 345 345 344 344 343 343 343 343 342 341 339 336 333 330 324
283 285 294 295 295 304 307 314 317 317 318 308 301 311 316 323 330 331 336 339 339 340 342 342 344 345 346 345 343 340 336 335 334 333 334 335 335 335 335 332 331 328 327 323
281 287 282 291 295 297 314 324 329 326 311 318 310 313 316 322 319 327 337 339 337 337 338 338 338 339 338 338 337 329 323 322 318 316 321 326 328 327 327 327 327 326 323 321
272 276 273 281 290 297 301 317 327 310 316 333 329 321 318 315 317 328 331 332 333 333 333 332 331 329 327 327 325 316 315 309 308 310 314 316 317 318 319 321 322 323 322 321
270 273 278 282 288 293 300 307 299 309 321 323 323 321 314 312 317 320 323 325 326 327 329 327 325 324 324 321 316 309 307 305 310 307 306 307 308 311 315 316 320 321 321 320
273 274 282 276 287 301 295 302 299 312 312 317 319 318 315 314 312 315 318 319 319 322 323 323 319 317 319 318 311 305 301 308 306 302 300 301 303 306 309 312 315 318 321 320
276 276 280 286 287 290 293 293 302 308 305 309 312 313 312 311 313 313 314 316 315 318 320 318 315 312 312 314 309 301 305 309 304 299 297 299 300 302 306 311 314 317 318 318
275 279 279 283 285 297 298 297 298 300 302 304 306 307 307 309 310 311 312 314 315 315 317 315 313 312 309 309 307 304 303 303 301 299 298 299 299 300 303 306 310 313 316 317
271 276 277 284 291 289 293 302 306 303 304 304 306 307 307 309 310 312 312 314 315 314 315 314 313 311 310 309 307 306 304 299 298 298 297 298 298 299 302 306 310 314 315 316